Total_Precipitation_Accumulation
1.73 2.19 2.74 3.59 4.67 5.57 5.84 5.35 4.86 4.51 4.10 3.70 3.13 2.77 2.75 2.67 2.38 2.09 1.82 1.75 1.72 1.80 1.93 1.74 1.92 1.80 1.85 1.93 1.99 2.07 2.03 1.97 2.02 2.17 2.13 1.82 1.60 1.57 1.53 1.60 1.81 1.70 1.66
1.89 2.61 3.64 4.22 4.46 4.59 4.35 4.03 3.77 3.55 3.10 2.76 2.53 2.29 2.30 2.10 1.92 1.82 1.81 1.56 1.50 1.58 1.54 1.74 1.77 1.73 1.89 1.93 1.89 1.96 1.91 1.75 1.79 2.03 2.27 1.96 1.78 1.48 1.14 1.26 1.28 1.36 1.62
2.07 2.87 3.45 3.57 3.29 2.97 2.89 2.84 2.91 2.66 2.53 2.50 2.40 2.30 2.31 2.08 1.82 1.72 1.69 1.46 1.30 1.32 1.40 1.48 1.57 1.72 1.68 1.79 1.87 1.78 1.80 1.82 1.77 1.80 2.11 2.09 1.90 1.64 1.22 1.06 1.11 1.26 1.45
1.60 2.02 2.25 2.15 2.26 2.40 2.43 2.55 2.64 2.38 2.36 2.32 2.04 1.95 1.85 1.76 1.64 1.58 1.56 1.64 1.39 1.25 1.23 1.30 1.39 1.53 1.48 1.69 1.55 1.61 1.80 1.85 1.72 1.67 1.60 1.66 1.73 1.84 1.60 1.25 1.08 1.17 1.26
0.98 1.09 1.22 1.38 1.60 1.71 1.88 2.17 2.42 2.36 2.20 2.04 1.98 2.05 1.91 1.86 1.84 1.85 1.81 1.79 1.63 1.40 1.26 1.31 1.38 1.44 1.39 1.44 1.46 1.75 1.75 1.67 1.61 1.57 1.58 1.58 1.57 1.56 1.61 1.48 1.28 1.19 1.01
0.84 0.88 0.94 1.09 1.26 1.38 1.55 1.79 2.11 2.24 2.17 2.02 1.94 1.98 2.03 1.99 1.89 1.86 1.81 1.62 1.52 1.48 1.36 1.35 1.38 1.33 1.30 1.31 1.34 1.58 1.61 1.63 1.66 1.62 1.50 1.57 1.54 1.49 1.61 1.43 1.25 1.13 0.82
0.88 0.95 0.91 0.88 0.94 1.09 1.24 1.34 1.53 1.81 1.92 1.89 1.88 1.89 2.02 1.94 1.74 1.62 1.53 1.47 1.28 1.21 1.25 1.28 1.34 1.19 1.20 1.32 1.50 1.55 1.52 1.58 1.60 1.51 1.42 1.39 1.26 1.34 1.43 1.34 1.14 1.11 0.90
0.78 0.81 0.79 0.76 0.74 0.82 1.01 1.14 1.35 1.54 1.73 1.74 1.72 1.74 1.82 1.74 1.61 1.60 1.39 1.30 1.24 1.17 1.22 1.23 1.19 1.18 1.22 1.26 1.54 1.46 1.43 1.47 1.43 1.32 1.51 1.44 1.19 1.32 1.36 1.42 1.57 1.42 1.25
0.59 0.70 0.75 0.83 0.81 0.79 0.92 1.05 1.30 1.50 1.68 1.77 1.78 1.71 1.72 1.74 1.70 1.63 1.45 1.27 1.36 1.28 1.33 1.30 1.26 1.26 1.38 1.52 1.65 1.53 1.52 1.56 1.40 1.39 1.58 1.51 1.36 1.37 1.33 1.46 1.68 1.79 1.57
0.63 0.83 0.96 0.93 0.78 0.66 0.74 0.91 1.11 1.39 1.57 1.72 1.70 1.59 1.75 1.71 1.71 1.64 1.52 1.38 1.37 1.34 1.39 1.37 1.31 1.38 1.46 1.59 1.67 1.55 1.60 1.57 1.47 1.50 1.64 1.62 1.51 1.52 1.47 1.50 1.66 1.88 1.85
0.72 0.87 1.04 1.00 0.78 0.67 0.64 0.76 1.01 1.26 1.39 1.48 1.57 1.55 1.59 1.55 1.56 1.58 1.55 1.51 1.48 1.41 1.38 1.37 1.37 1.37 1.44 1.53 1.60 1.51 1.54 1.50 1.50 1.50 1.55 1.56 1.68 1.71 1.68 1.78 1.82 1.91 2.03
0.77 0.71 0.80 0.96 0.91 0.78 0.68 0.81 1.07 1.27 1.34 1.39 1.38 1.39 1.47 1.47 1.42 1.39 1.44 1.48 1.41 1.34 1.38 1.42 1.37 1.28 1.35 1.49 1.51 1.44 1.50 1.53 1.49 1.57 1.72 1.65 1.70 1.77 1.85 1.99 1.91 1.97 2.22
0.58 0.57 0.66 0.79 0.94 0.90 0.82 0.95 1.13 1.23 1.27 1.20 1.19 1.22 1.26 1.25 1.24 1.26 1.33 1.42 1.44 1.44 1.40 1.35 1.28 1.27 1.31 1.37 1.40 1.49 1.61 1.65 1.68 1.76 1.84 1.87 2.03 1.94 1.98 2.03 1.99 2.05 2.28
0.61 0.58 0.63 0.80 0.91 0.96 0.93 0.93 1.02 1.17 1.18 1.11 1.18 1.29 1.33 1.35 1.35 1.35 1.43 1.52 1.58 1.53 1.53 1.50 1.52 1.53 1.48 1.46 1.52 1.63 1.71 1.73 1.79 1.93 1.96 1.97 2.03 2.08 2.19 2.20 2.27 2.43 2.61
0.62 0.61 0.69 0.85 0.93 1.07 1.10 1.07 1.06 1.12 1.20 1.27 1.37 1.55 1.69 1.69 1.58 1.59 1.69 1.76 1.80 1.75 1.87 1.84 1.81 1.85 1.79 1.62 1.72 1.79 1.77 1.88 1.82 1.90 1.95 1.91 2.00 2.06 2.16 2.13 2.31 2.60 2.78
0.58 0.55 0.66 0.85 0.88 0.89 0.95 0.95 0.97 1.01 1.03 1.12 1.25 1.45 1.64 1.73 1.75 1.81 1.91 1.93 1.90 2.00 2.06 1.99 1.98 1.97 1.75 1.86 1.92 1.89 1.95 2.01 1.97 1.97 1.99 1.96 1.93 1.86 1.90 1.98 2.09 2.26 2.46
0.58 0.59 0.64 0.74 0.90 0.83 0.81 0.90 0.95 1.06 1.16 1.32 1.50 1.60 1.77 1.89 1.92 1.88 1.91 1.94 1.95 1.93 1.99 2.01 2.03 1.92 1.87 1.88 1.75 1.76 1.77 1.88 1.95 1.97 1.98 1.81 1.69 1.71 1.63 1.77 1.83 1.82 1.88
0.78 0.83 0.90 0.90 0.98 0.96 0.94 1.00 1.04 1.16 1.22 1.29 1.45 1.58 1.75 1.88 1.95 2.04 2.09 2.15 2.19 2.19 2.19 2.12 2.09 2.06 1.93 1.84 1.70 1.74 1.62 1.67 1.71 1.75 1.78 1.77 1.68 1.66 1.74 1.74 1.62 1.48 1.47
0.86 0.93 0.98 1.02 1.02 1.10 1.18 1.27 1.25 1.37 1.49 1.51 1.67 1.81 1.89 2.03 2.09 2.13 2.25 2.34 2.39 2.35 2.32 2.29 2.31 2.32 2.31 2.22 1.93 1.82 1.67 1.71 1.70 1.70 1.70 1.70 1.57 1.66 1.62 1.57 1.57 1.48 1.40
0.96 1.02 0.98 0.99 1.10 1.17 1.27 1.38 1.53 1.66 1.82 1.89 1.93 2.00 2.12 2.19 2.17 2.17 2.23 2.24 2.25 2.26 2.26 2.21 2.26 2.24 2.27 2.34 2.03 1.80 1.60 1.64 1.68 1.76 1.77 1.79 1.63 1.68 1.63 1.59 1.63 1.54 1.46
1.14 1.11 1.09 1.13 1.18 1.18 1.26 1.42 1.62 1.77 1.84 1.89 1.96 2.05 2.14 2.32 2.40 2.41 2.27 2.12 2.09 2.13 2.21 2.21 2.26 2.27 2.23 2.19 1.83 1.68 1.61 1.67 1.71 1.67 1.63 1.66 1.68 1.52 1.43 1.38 1.38 1.45 1.47
1.24 1.24 1.23 1.20 1.23 1.31 1.37 1.48 1.65 1.76 1.84 1.84 1.94 2.03 2.07 2.09 2.13 2.34 2.39 2.29 2.19 2.12 2.14 2.20 2.17 2.10 2.06 1.94 1.63 1.37 1.35 1.43 1.47 1.48 1.46 1.46 1.42 1.24 1.13 1.01 0.99 1.06 1.06
1.13 1.17 1.21 1.25 1.29 1.36 1.47 1.60 1.68 1.76 1.80 1.90 2.04 2.16 2.16 2.19 2.17 2.18 2.23 2.19 2.11 1.96 1.81 1.87 1.92 1.93 1.93 1.81 1.54 1.26 1.16 1.18 1.14 1.23 1.43 1.43 1.29 1.18 1.10 1.05 0.97 0.89 0.82
1.15 1.20 1.21 1.24 1.39 1.52 1.66 1.69 1.68 1.76 1.94 2.02 2.06 2.08 2.08 2.06 2.12 2.23 2.15 2.07 2.07 2.00 1.82 1.83 1.90 1.94 1.93 1.81 1.60 1.44 1.33 1.28 1.22 1.24 1.39 1.45 1.42 1.34 1.25 1.15 0.98 0.82 0.80
1.11 1.18 1.27 1.32 1.42 1.51 1.63 1.72 1.75 1.80 1.89 1.85 1.77 1.81 1.86 1.86 1.86 2.01 2.07 1.89 1.82 1.89 1.84 1.92 2.10 2.05 1.87 1.73 1.57 1.39 1.36 1.35 1.39 1.40 1.49 1.60 1.62 1.58 1.46 1.30 1.14 1.01 0.96
1.05 1.13 1.22 1.34 1.41 1.46 1.52 1.55 1.61 1.71 1.81 1.86 1.79 1.72 1.71 1.73 1.77 1.78 1.82 1.80 1.58 1.57 1.53 1.58 1.69 1.75 1.65 1.55 1.47 1.36 1.31 1.24 1.24 1.26 1.40 1.67 1.74 1.74 1.71 1.58 1.39 1.24 1.13